x

9076033 - Little Rapids, Mi (ltrm4) Weather Station

2:30am - Sun 26th Feb 2017 All times are CST. -6 hours from GMT.

  • Wind
    6mph, 8mph gusts
  • Air Temp 21°f
  • Sea Pressure 1009.2mb
  • 9076033 - Little Rapids, Mi
  • 9076033 - Little Rapids, Mi

More Historic Weather Station data

Upgrade to MSW Pro to gain access to the past 30 days of data for over 8000 Wavebouys and Weather Stations around the globe.

Join Pro

Comparision Forecast

View Surf forecast
   
Sun 02/26 2:30am 6 8 mph 1009.2mb 21f
2:24am 6 8 mph 1009.2mb 21f
2:18am 7 9 mph 1009.3mb 21f
2:12am 7 10 mph 1009.3mb 21f
2:06am 6 11 mph 1009.3mb 21f
2:00am 8 11 mph 1009.3mb 21f
1:54am 8 11 mph 1009.3mb 21f
1:48am 8 13 mph 1009.2mb 21f
1:42am 8 13 mph 1009.3mb 21f
1:36am 8 14 mph 1009.3mb 21f
1:30am 8 14 mph 1009.2mb 21f
1:24am 8 11 mph 1009.2mb 21f
1:18am 8 13 mph 1009.2mb 21f
1:12am 7 11 mph 1009.1mb 20f
1:06am 10 15 mph 1009mb 20f
1:00am 9 15 mph 1008.9mb 20f
12:54am 9 13 mph 1008.9mb 20f
12:48am 8 13 mph 1008.8mb 20f
12:42am 9 14 mph 1008.8mb 20f
12:36am 8 13 mph 1008.7mb 20f
12:30am 8 14 mph 1008.6mb 20f
12:24am 9 16 mph 1008.6mb 20f
12:18am 9 13 mph 1008.5mb 20f
12:12am 10 15 mph 1008.5mb 20f
12:06am 10 15 mph 1008.5mb 20f
12:00am 10 18 mph 1008.4mb 20f
Sat 02/25 11:54pm 10 16 mph 1008.4mb 20f
11:48pm 8 14 mph 1008.2mb 20f
11:42pm 13 18 mph 1008.2mb 20f
11:36pm 11 20 mph 1008.1mb 20f
11:30pm 14 20 mph 1008.1mb 20f
11:24pm 11 21 mph 1008mb 20f
11:18pm 11 18 mph 1007.9mb 20f
11:12pm 13 17 mph 1007.9mb 21f
11:06pm 10 16 mph 1007.8mb 21f
11:00pm 13 20 mph 1007.8mb 21f
10:54pm 14 21 mph 1007.7mb 21f
10:48pm 14 18 mph 1007.6mb 21f
10:42pm 9 16 mph 1007.6mb 21f
10:36pm 9 15 mph 1007.6mb 21f
10:30pm 10 16 mph 1007.6mb 21f
10:24pm 8 11 mph 1007.5mb 21f
10:18pm 9 13 mph 1007.5mb 21f
10:12pm 8 11 mph 1007.4mb 21f
10:06pm 9 13 mph 1007.3mb 21f
10:00pm 9 13 mph 1007.2mb 21f
9:54pm 7 11 mph 1007.1mb 21f
9:48pm 8 11 mph 1007.1mb 21f
9:42pm 9 15 mph 1007mb 21f
9:36pm 10 15 mph 1006.9mb 21f
9:30pm 9 16 mph 1006.9mb 21f
9:24pm 9 14 mph 1006.8mb 21f
9:18pm 10 15 mph 1006.8mb 21f
9:12pm 9 17 mph 1006.6mb 21f
9:06pm 8 15 mph 1006.5mb 21f
9:00pm 8 13 mph 1006.5mb 21f
8:54pm 8 15 mph 1006.5mb 21f
8:48pm 10 14 mph 1006.5mb 21f
8:42pm 8 13 mph 1006.5mb 21f
8:36pm 11 16 mph 1006.4mb 21f
8:30pm 13 16 mph 1006.4mb 21f
8:24pm 10 14 mph 1006.2mb 21f
8:18pm 9 13 mph 1006.2mb 21f
8:12pm 9 16 mph 1006.1mb 21f
8:06pm 13 17 mph 1005.9mb 22f
8:00pm 13 20 mph 1005.8mb 22f
7:54pm 14 21 mph 1005.7mb 23f
7:48pm 11 16 mph 1005.6mb 24f
7:42pm 11 20 mph 1005.4mb 24f
7:36pm 15 21 mph 1005.3mb 23f
7:30pm 15 21 mph 1005.2mb 23f
7:24pm 17 24 mph 1005.1mb 23f
7:18pm 15 29 mph 1005.1mb 23f
7:12pm 20 30 mph 1005mb 23f
7:06pm 21 31 mph 1004.9mb 23f
7:00pm 18 25 mph 1005mb 23f
6:54pm 21 25 mph 1004.9mb 23f
6:48pm 17 32 mph 1004.9mb 22f
6:42pm 23 32 mph 1004.8mb 22f
6:36pm 18 32 mph 1004.8mb 22f
6:30pm 20 25 mph 1004.7mb 22f
6:24pm 20 28 mph 1004.6mb 22f
6:18pm 18 25 mph 1004.4mb 22f
6:12pm 16 28 mph 1004.3mb 22f
6:06pm 17 25 mph 1004.1mb 22f
6:00pm 16 25 mph 1004mb 22f
5:54pm 18 26 mph 1003.8mb 22f
5:48pm 15 26 mph 1003.7mb 22f
5:42pm 20 31 mph 1003.5mb 22f
5:36pm 13 22 mph 1003.4mb 22f
5:30pm 16 22 mph 1003.4mb 22f
5:24pm 16 20 mph 1003.2mb 22f
5:18pm 16 23 mph 1003.1mb 23f
5:12pm 14 18 mph 1002.9mb 22f
5:06pm 14 21 mph 1002.9mb 22f
5:00pm 13 23 mph 1002.9mb 22f
4:54pm 15 24 mph 1002.8mb 22f
4:48pm 21 29 mph 1002.6mb 22f
4:42pm 17 22 mph 1002.5mb 22f
4:36pm 14 22 mph 1002.5mb 22f
4:30pm 17 24 mph 1002.4mb 22f
4:24pm 17 22 mph 1002.3mb 21f
4:18pm 15 24 mph 1002.2mb 21f
4:12pm 14 17 mph 1002.1mb 21f
4:06pm 16 20 mph 1002.1mb 21f
4:00pm 15 21 mph 1001.9mb 21f
3:54pm 13 23 mph 1001.8mb 21f
3:48pm 17 28 mph 1001.6mb 21f
3:42pm 21 26 mph 1001.4mb 21f
3:36pm 17 25 mph 1001.4mb 21f
3:30pm 15 22 mph 1001.2mb 21f
3:24pm 15 26 mph 1001.2mb 21f
3:18pm 20 28 mph 1001mb 20f
3:12pm 17 23 mph 1000.9mb 20f
3:06pm 15 26 mph 1000.9mb 21f
3:00pm 18 24 mph 1000.7mb 21f
2:54pm 17 24 mph 1000.6mb 21f
2:48pm 14 24 mph 1000.4mb 21f
2:42pm 14 22 mph 1000.2mb 20f
2:36pm 20 25 mph 1000mb 20f
2:30pm 20 25 mph 999.9mb 20f
2:24pm 17 24 mph 999.8mb 20f
2:18pm 15 24 mph 999.6mb 20f
2:12pm 18 25 mph 999.4mb 20f
2:06pm 18 28 mph 999.2mb 20f
2:00pm 16 23 mph 999mb 20f
1:54pm 17 24 mph 998.8mb 20f
1:48pm 14 18 mph 998.7mb 20f
1:42pm 15 22 mph 998.5mb 20f
1:36pm 13 20 mph 998.4mb 20f
1:30pm 13 17 mph 998.3mb 20f
1:24pm 18 23 mph 998.1mb 20f
1:18pm 15 20 mph 997.9mb 20f
1:12pm 14 18 mph 997.7mb 20f
1:06pm 15 21 mph 997.7mb 20f
1:00pm 14 20 mph 997.6mb 20f
12:54pm 11 18 mph 997.5mb 20f
12:48pm 15 23 mph 997.4mb 20f
12:42pm 14 20 mph 997.4mb 20f
12:36pm 14 21 mph 997.3mb 20f
12:30pm 16 22 mph 997.3mb 20f
12:24pm 13 18 mph 997.2mb 20f
12:18pm 15 24 mph 997.2mb 20f
12:12pm 15 21 mph 997.1mb 21f
12:06pm 18 23 mph 997mb 21f
12:00pm 14 23 mph 996.9mb 21f
11:54am 16 22 mph 996.8mb 21f
11:48am 17 23 mph 996.8mb 21f
11:42am 15 24 mph 996.8mb 21f
11:36am 16 23 mph 996.7mb 21f
11:30am 13 20 mph 996.7mb 22f
11:24am 13 20 mph 996.7mb 22f
11:18am 15 22 mph 996.6mb 21f
11:12am 17 25 mph 996.5mb 21f
11:06am 15 22 mph 996.5mb 21f
11:00am 16 23 mph 996.4mb 21f
10:54am 16 24 mph 996.3mb 21f
10:48am 15 21 mph 996.2mb 21f
10:42am 15 24 mph 996.2mb 21f
10:36am 14 20 mph 996mb 21f
10:30am 13 22 mph 996mb 21f
10:24am 15 20 mph 995.9mb 21f
10:18am 14 20 mph 995.8mb 21f
10:12am 14 20 mph 995.7mb 22f
10:06am 15 22 mph 995.5mb 22f
10:00am 14 22 mph 995.5mb 21f
9:54am 11 16 mph 995.4mb 21f
9:48am 9 17 mph 995.3mb 21f
9:42am 7 13 mph 995.2mb 21f
9:36am 8 13 mph 995.1mb 21f
9:30am 7 9 mph 995mb 21f
9:24am 7 13 mph 995mb 21f
9:18am 8 11 mph 995mb 21f
9:12am 8 10 mph 995mb 21f
9:06am 9 11 mph 994.9mb 20f
9:00am 9 11 mph 995mb 20f
8:54am 7 10 mph 995.1mb 20f
8:48am 7 9 mph 995.2mb 20f
8:42am 8 10 mph 995mb 20f
8:36am 9 10 mph 994.9mb 20f
8:30am 7 10 mph 994.9mb 20f
8:24am 7 10 mph 994.8mb 20f
8:18am 8 11 mph 994.8mb 20f
8:12am 8 10 mph 994.9mb 20f
8:06am 8 10 mph 995.1mb 20f
8:00am 8 10 mph 995mb 20f
7:54am 8 13 mph 994.9mb 20f
7:48am 7 9 mph 994.9mb 20f
7:42am 7 9 mph 994.7mb 20f
7:36am 7 8 mph 994.5mb 20f
7:30am 6 7 mph 994.4mb 20f
7:24am 6 8 mph 994.4mb 20f
7:18am 6 8 mph 994.4mb 20f
7:12am 7 9 mph 994.3mb 21f
7:06am 8 10 mph 994.3mb 21f
7:00am 7 10 mph 994.2mb 21f
6:54am 6 8 mph 994.4mb 21f
6:48am 7 9 mph 994.4mb 21f
6:42am 5 6 mph 994.3mb 21f
6:36am 5 7 mph 994.3mb 21f
6:30am 6 8 mph 994.1mb 21f
6:24am 7 9 mph 993.9mb 21f
6:18am 8 9 mph 993.8mb 21f
6:12am 6 8 mph 993.9mb 21f
6:06am 7 10 mph 994.1mb 21f
6:00am 7 10 mph 994.2mb 21f
5:54am 6 13 mph 994.3mb 21f
5:48am 8 10 mph 994.4mb 21f
5:42am 8 10 mph 994.4mb 21f
5:36am 9 10 mph 994.5mb 21f
5:30am 6 8 mph 994.5mb 21f
5:24am 7 9 mph 994.5mb 21f
5:18am 6 9 mph 994.4mb 21f
5:12am 7 10 mph 994.3mb 21f
5:06am 9 11 mph 994.3mb 21f
5:00am 7 10 mph 994.3mb 21f
4:54am 9 13 mph 994.3mb 20f
4:48am 9 11 mph 994.3mb 21f
4:42am 9 11 mph 994.4mb 21f
4:36am 10 13 mph 994.5mb 21f
4:30am 11 13 mph 994.6mb 21f
4:24am 11 14 mph 994.7mb 21f
4:18am 9 13 mph 994.7mb 21f
4:12am 10 14 mph 994.7mb 21f
4:06am 11 13 mph 994.9mb 21f
4:00am 9 13 mph 995.1mb 21f
3:54am 9 13 mph 995.1mb 21f
3:48am 9 11 mph 995.2mb 21f
3:42am 9 11 mph 995.3mb 21f
3:36am 7 10 mph 995.3mb 21f
3:30am 9 10 mph 995.3mb 21f
3:24am 9 14 mph 995.4mb 21f
3:18am 10 13 mph 995.5mb 21f
3:12am 9 13 mph 995.6mb 21f
3:06am 10 14 mph 995.7mb 21f
3:00am 11 14 mph 995.7mb 21f
2:54am 10 14 mph 995.7mb 21f
2:48am 11 14 mph 995.6mb 21f
2:42am 9 11 mph 995.8mb 21f
2:36am 8 9 mph 996.2mb 21f
2:30am 9 11 mph 996.3mb 22f
2:24am 10 14 mph 996.2mb 22f
2:18am 14 15 mph 996.1mb 22f
2:12am 8 11 mph 996.3mb 22f
2:06am 9 11 mph 996.5mb 22f
2:00am 9 13 mph 996.6mb 22f
1:54am 10 11 mph 996.8mb 22f
1:48am 7 8 mph 996.9mb 22f
1:42am 7 9 mph 997.2mb 22f
1:36am 8 10 mph 997.2mb 22f
1:30am 9 10 mph 997mb 22f
1:24am 7 10 mph 997.2mb 22f
1:18am 8 11 mph 997.2mb 22f
1:12am 9 14 mph 997.1mb 22f
1:06am 10 13 mph 997.2mb 22f
1:00am 9 15 mph 997.1mb 22f
12:54am 11 16 mph 997.4mb 22f
12:48am 15 18 mph 997.4mb -
12:42am 16 18 mph 997.2mb -
12:36am 16 18 mph 997.4mb -
12:30am 14 18 mph 997.5mb 23f
12:24am 14 18 mph 997.6mb 23f
12:18am 15 17 mph 998.1mb 23f
12:12am 11 15 mph 998.3mb 23f
12:06am 11 16 mph 998.3mb 23f
12:00am 13 16 mph 998.2mb 23f
Fri 02/24 11:54pm 9 14 mph 998.5mb 22f
11:48pm 9 13 mph 998.7mb -
11:42pm 11 15 mph 998.7mb -
11:36pm 13 21 mph 998.3mb -
11:30pm 16 21 mph 998mb 22f
11:24pm 16 22 mph 998.1mb 22f
11:18pm 17 23 mph 998.4mb 23f
11:12pm 16 20 mph 998.5mb 22f
11:06pm 17 20 mph 998.7mb 22f
11:00pm 15 23 mph 998.9mb 22f
10:54pm 18 22 mph 999mb 23f
10:48pm 16 18 mph 999.2mb 22f
10:42pm 14 20 mph 999.3mb 23f
10:36pm 18 21 mph 999.4mb 23f
10:30pm 16 18 mph 999.5mb 23f
10:24pm 14 21 mph 999.8mb 23f
10:18pm 14 20 mph 1000.1mb 23f
10:12pm 18 21 mph 1000.2mb 23f
10:06pm 11 16 mph 1000.4mb 24f
10:00pm 11 16 mph 1000.8mb 24f
9:54pm 15 20 mph 1000.6mb 24f
9:48pm 15 18 mph 1000.5mb 24f
9:42pm 15 17 mph 1000.9mb 24f
9:36pm 14 18 mph 1001mb 25f
9:30pm 14 18 mph 1001.3mb 24f
9:24pm 10 18 mph 1001.1mb 24f
9:18pm 14 16 mph 1000.9mb 24f
9:12pm 13 17 mph 1001.1mb 24f
9:06pm 10 16 mph 1001.3mb 25f
9:00pm 15 17 mph 1001.1mb 24f
8:54pm 13 16 mph 1001.5mb 25f
8:48pm 13 18 mph 1001.5mb 25f
8:42pm 16 20 mph 1001.5mb 25f
8:36pm 11 16 mph 1001.6mb 25f
8:30pm 14 17 mph 1001.8mb 25f
8:24pm 13 17 mph 1001.9mb 25f
8:18pm 13 16 mph 1001.9mb 25f
8:12pm 11 14 mph 1002.1mb 25f
8:06pm 6 14 mph 1002.4mb 25f
8:00pm 17 22 mph 1002.1mb 25f
7:54pm 14 18 mph 1002.2mb 25f
7:48pm 13 17 mph 1002.4mb 25f
7:42pm 11 15 mph 1002.6mb 25f
7:36pm 15 20 mph 1002.3mb 25f
7:30pm 15 17 mph 1002mb 25f
7:24pm 15 20 mph 1002.3mb 25f
7:18pm 18 22 mph 1002.4mb 25f
7:12pm 18 21 mph 1002.6mb 25f
7:06pm 16 18 mph 1003.2mb 25f
7:00pm 10 13 mph 1003.6mb 25f
6:54pm 9 15 mph 1004mb 26f
6:48pm 13 17 mph 1003.7mb 25f
6:42pm 17 22 mph 1003.2mb 26f
6:36pm 16 20 mph 1003.3mb 26f
6:30pm 17 21 mph 1003.6mb 26f
6:24pm 14 17 mph 1003.8mb 26f
6:18pm 13 17 mph 1003.6mb 26f
6:12pm 17 22 mph 1003.4mb 26f
6:06pm 15 21 mph 1003.2mb 26f
6:00pm 14 18 mph 1003.5mb 26f
5:54pm 16 20 mph 1003.7mb 26f
5:48pm 15 18 mph 1003.9mb 27f
5:42pm 16 20 mph 1004mb 27f
5:36pm 17 22 mph 1003.6mb 27f
5:30pm 18 23 mph 1003.5mb 27f
5:24pm 17 21 mph 1003.9mb 28f
5:18pm 18 23 mph 1004.3mb 28f
5:12pm 17 22 mph 1004.1mb 28f
5:06pm 15 21 mph 1004mb 28f
5:00pm 18 22 mph 1003.8mb 28f
4:54pm 17 21 mph 1004mb 28f
4:48pm 16 20 mph 1004.4mb 28f
4:42pm 13 18 mph 1004.6mb 28f
4:36pm 11 17 mph 1004.7mb 29f
4:30pm 15 20 mph 1004.5mb 28f
4:24pm 18 22 mph 1004.3mb 29f
4:18pm 15 20 mph 1004.6mb 29f
4:12pm 17 22 mph 1004.6mb 29f
4:06pm 17 21 mph 1004.5mb 29f
4:00pm 17 22 mph 1005mb 29f
3:54pm 15 20 mph 1004.9mb 29f
3:48pm 18 21 mph 1005.1mb 29f
3:42pm 13 18 mph 1005.4mb 29f
3:36pm 14 22 mph 1005.3mb 29f
3:30pm 16 22 mph 1005.1mb 29f
3:24pm 14 18 mph 1005.1mb 29f
3:18pm 17 20 mph 1005.1mb 29f
3:12pm 15 20 mph 1005.3mb 29f
3:06pm 14 20 mph 1005.4mb 29f
3:00pm 15 18 mph 1005.3mb 29f
2:54pm 15 22 mph 1005.3mb 29f
2:48pm 14 20 mph 1005.3mb 30f
2:42pm 16 21 mph 1005.1mb 30f
2:36pm 14 16 mph 1005.3mb 30f
2:30pm 13 16 mph 1005.7mb 30f
2:24pm 10 13 mph 1006.1mb 30f
2:18pm 13 16 mph 1006.3mb 30f
2:12pm 15 22 mph 1006.1mb 30f
2:06pm 15 21 mph 1005.9mb 30f
2:00pm 18 22 mph 1006mb 30f
1:54pm 16 18 mph 1006.1mb 30f
1:48pm 15 23 mph 1006.2mb 30f
1:42pm 17 21 mph 1006.5mb 30f
1:36pm 17 23 mph 1006.7mb 30f
1:30pm 20 23 mph 1006.6mb 30f
1:24pm 15 18 mph 1006.6mb 30f
1:18pm 14 20 mph 1006.6mb 30f
1:12pm 15 21 mph 1006.3mb 29f
1:06pm 16 21 mph 1006.3mb 29f
1:00pm 18 24 mph 1006.5mb 29f
12:54pm 17 22 mph 1006.6mb 29f
12:48pm 16 23 mph 1006.8mb 29f
12:42pm 16 25 mph 1007.1mb 29f
12:36pm 18 31 mph 1006.4mb 29f
12:30pm 24 30 mph 1005.7mb 29f
12:24pm 21 25 mph 1005.8mb 28f
12:18pm 18 23 mph 1006.7mb 28f
12:12pm 17 21 mph 1006.9mb 28f
12:06pm 17 20 mph 1007.8mb 28f
12:00pm 14 17 mph 1008.3mb 28f
11:54am 11 15 mph 1008.4mb 28f
11:48am 13 15 mph 1008.2mb 28f
11:42am 11 14 mph 1008.7mb 28f
11:36am 10 20 mph 1008.5mb 28f
11:30am 14 23 mph 1007.9mb 28f
11:24am 22 26 mph 1007.4mb 28f
11:18am 17 22 mph 1007.3mb 28f
11:12am 22 28 mph 1007.8mb 27f
11:06am 22 26 mph 1008.1mb 27f
11:00am 18 22 mph 1008.6mb 27f
10:54am 17 23 mph 1008.7mb 27f
10:48am 17 23 mph 1009.1mb 27f
10:42am 15 20 mph 1009mb 27f
10:36am 17 22 mph 1009.2mb 27f
10:30am 14 18 mph 1009.5mb 27f
10:24am 11 17 mph 1009.5mb 27f
10:18am 11 15 mph 1009.7mb 27f
10:12am 13 17 mph 1009.6mb 27f
10:06am 13 15 mph 1009.8mb 27f
10:00am 13 16 mph 1010.4mb 27f
9:54am 11 15 mph 1010.5mb 27f
9:48am 10 14 mph 1010.2mb 28f
9:42am 9 13 mph 1009.9mb 28f
9:36am 14 16 mph 1009.7mb 28f
9:30am 11 16 mph 1010mb 28f
9:24am 11 14 mph 1009.7mb 28f
9:18am 13 16 mph 1009.6mb 28f
9:12am 14 16 mph 1009.7mb 28f
9:06am 13 17 mph 1009.8mb 28f
9:00am 13 14 mph 1010.1mb 28f
8:54am 14 20 mph 1010.1mb 28f
8:48am 13 21 mph 1010mb 28f
8:42am 16 22 mph 1009.7mb 28f
8:36am 15 17 mph 1009.9mb 28f
8:30am 13 20 mph 1010.2mb 28f
8:24am 15 20 mph 1010.1mb 28f
8:18am 18 23 mph 1009.7mb 28f
8:12am 20 23 mph 1009.3mb 28f
8:06am 18 22 mph 1009.2mb 28f
8:00am 16 21 mph 1009.7mb 28f
7:54am 16 22 mph 1009.6mb 28f
7:48am 15 21 mph 1009.6mb 28f
7:42am 21 23 mph 1009.5mb 28f
7:36am 14 18 mph 1009.8mb 28f
7:30am 14 17 mph 1010mb 28f
7:24am 11 15 mph 1010.2mb 28f
7:18am 14 16 mph 1010.2mb 28f
7:12am 8 15 mph 1010.4mb 28f
7:06am 11 15 mph 1010.4mb 28f
7:00am 11 15 mph 1010.5mb 28f
6:54am 11 15 mph 1010.6mb 28f
6:48am 13 16 mph 1010.7mb 28f
6:42am 15 17 mph 1010.9mb 28f
6:36am 10 14 mph 1010.9mb 28f
6:30am 11 17 mph 1010.7mb 28f
6:24am 10 16 mph 1010.7mb 28f
6:18am 13 16 mph 1010.6mb 28f
6:12am 13 15 mph 1010.5mb 28f
6:06am 11 15 mph 1010.5mb 28f
6:00am 10 11 mph 1010.9mb 28f
5:54am 8 10 mph 1011.2mb 28f
5:48am 8 11 mph 1011.5mb 28f
5:42am 9 11 mph 1011.6mb 28f
5:36am 7 9 mph 1011.6mb 28f
5:30am 9 11 mph 1011.9mb 28f
5:24am 8 11 mph 1011.8mb 28f
5:18am 7 10 mph 1012mb 28f
5:12am 8 11 mph 1012mb 28f
5:06am 9 11 mph 1012mb 28f
5:00am 8 10 mph 1012mb 28f
4:54am 8 13 mph 1012.1mb 28f
4:48am 11 14 mph 1012.3mb 28f
4:42am 11 15 mph 1012.2mb 28f
4:36am 10 16 mph 1012.3mb 28f
4:30am 9 13 mph 1012.3mb 28f
4:24am 9 11 mph 1012.2mb 28f
4:18am 6 14 mph 1012.3mb 28f
4:12am 10 13 mph 1012.2mb 28f
4:06am 8 11 mph 1012.1mb 28f
4:00am 9 11 mph 1012.1mb 28f
3:54am 10 11 mph 1012.1mb 28f
3:48am 9 14 mph 1012.1mb 28f
3:42am 8 14 mph 1012.2mb 28f
3:36am 10 13 mph 1012.1mb 28f
3:30am 9 11 mph 1012.1mb 29f
3:24am 8 9 mph 1012.1mb 29f
3:18am 7 8 mph 1012.3mb 29f
3:12am 6 10 mph 1012.5mb 29f
3:06am 7 8 mph 1012.1mb 29f
3:00am 7 8 mph 1012.2mb 29f
2:54am 7 10 mph 1012.2mb 29f
2:48am 7 9 mph 1012.4mb 29f
2:42am 7 9 mph 1012.5mb 29f
2:36am 7 8 mph 1012.6mb 29f
2:30am 7 9 mph 1012.8mb 29f
2:24am 8 9 mph 1012.7mb 29f
2:18am 8 9 mph 1012.6mb 29f
2:12am 7 10 mph 1012.7mb 29f
2:06am 9 11 mph 1012.5mb 29f
2:00am 9 10 mph 1012.5mb 29f
1:54am 8 9 mph 1012.4mb 29f
1:48am 8 9 mph 1012.9mb 29f
1:42am 7 9 mph 1013.3mb 29f
1:36am 8 9 mph 1013.4mb 29f
1:30am 8 9 mph 1013.3mb 29f
1:24am 7 8 mph 1013.4mb 29f
1:18am 7 8 mph 1013.3mb 29f
1:12am 7 8 mph 1013.3mb 29f
1:06am 6 7 mph 1013.3mb 30f
1:00am 5 6 mph 1013.4mb 30f
12:54am 6 7 mph 1013.3mb 29f
12:48am 6 7 mph 1013.4mb -
12:42am 6 7 mph 1013.5mb -
12:36am 5 6 mph 1013.7mb -
12:30am 5
mph
1013.7mb 30f
12:24am 5 7 mph 1013.9mb 30f
12:18am 5 8 mph 1013.9mb 30f
12:12am 3 5 mph 1013.9mb 30f
12:06am 3 5 mph 1014mb 30f
12:00am 2 5 mph 1014mb 30f
Thu 02/23 11:54pm 2 3 mph 1013.9mb 30f
11:48pm 2 3 mph 1013.9mb -
11:42pm 2 3 mph 1014.1mb -
11:36pm 2 3 mph 1014.1mb -
11:30pm 3 5 mph 1013.9mb 30f
11:24pm 3 6 mph 1013.8mb 30f
11:18pm 5 6 mph 1013.7mb 30f
11:12pm 5 6 mph 1013.8mb 30f
11:06pm 5
mph
1013.9mb 30f
11:00pm 5
mph
1014mb 30f
10:54pm 5
mph
1014.1mb 30f
10:48pm 3 5 mph 1014.2mb 30f
10:42pm 3 5 mph 1014.3mb 30f
10:36pm 3 5 mph 1014.4mb 30f
10:30pm 3 8 mph 1014.2mb 30f
10:24pm 6 8 mph 1014.2mb 30f
10:18pm 5 6 mph 1014.2mb 31f
10:12pm 5 9 mph 1014.1mb 31f
10:06pm 6 8 mph 1014.1mb 31f
10:00pm 7 9 mph 1014.1mb 31f
9:54pm 8 9 mph 1014.1mb 31f
9:48pm 3 7 mph 1014.1mb 31f
9:42pm 6 8 mph 1014.1mb 31f
9:36pm 5 8 mph 1014mb 31f
9:30pm 5 7 mph 1013.9mb 31f
9:24pm 6 8 mph 1013.8mb 31f
9:18pm 5 6 mph 1013.8mb 31f
9:12pm 5 6 mph 1013.7mb 31f
9:06pm 5 7 mph 1013.7mb 31f
9:00pm 6 9 mph 1013.6mb 31f
8:54pm 6 7 mph 1013.4mb 31f
8:48pm 7 8 mph 1013.2mb 31f
8:42pm 7 13 mph 1013.2mb 31f
8:36pm 9 13 mph 1013.1mb 31f
8:30pm 9 15 mph 1013mb 31f
8:24pm 8 9 mph 1013.2mb 31f
8:18pm 7 11 mph 1013.3mb 31f
8:12pm 8 13 mph 1013.2mb 31f
8:06pm 8 11 mph 1013.3mb 31f
8:00pm 9 10 mph 1013.2mb 31f
7:54pm 9 11 mph 1013.2mb 31f
7:48pm 9 11 mph 1013.1mb 31f
7:42pm 10 14 mph 1013.1mb 31f
7:36pm 11 14 mph 1013.1mb 31f
7:30pm 10 13 mph 1013.1mb 31f
7:24pm 10 11 mph 1013.1mb 31f
7:18pm 10 14 mph 1013mb 31f
7:12pm 9 13 mph 1013mb 31f
7:06pm 10 14 mph 1012.8mb 31f
7:00pm 10 14 mph 1012.8mb 31f
6:54pm 10 14 mph 1012.7mb 31f
6:48pm 10 14 mph 1012.8mb 31f
6:42pm 11 14 mph 1012.8mb 31f
6:36pm 10 13 mph 1012.8mb 31f
6:30pm 10 14 mph 1012.9mb 31f
6:24pm 9 11 mph 1013mb 31f
6:18pm 10 15 mph 1013mb 32f
6:12pm 11 15 mph 1013mb 32f
6:06pm 10 16 mph 1013mb 32f
6:00pm 11 16 mph 1013mb 32f
5:54pm 10 15 mph 1013mb 32f
5:48pm 11 16 mph 1012.9mb 32f
5:42pm 11 15 mph 1012.8mb 32f
5:36pm 10 15 mph 1012.7mb 32f
5:30pm 11 15 mph 1012.6mb 32f
5:24pm 11 15 mph 1012.5mb 31f
5:18pm 14 18 mph 1012.4mb 32f
5:12pm 15 20 mph 1012.3mb 32f
5:06pm 13 17 mph 1012.1mb 32f
5:00pm 14 18 mph 1012.1mb 32f
4:54pm 11 20 mph 1012.1mb 32f
4:48pm 13 16 mph 1012mb 32f
4:42pm 13 21 mph 1012mb 32f
4:36pm 16 20 mph 1011.9mb 32f
4:30pm 15 20 mph 1011.8mb 32f
4:24pm 16 21 mph 1011.8mb 32f
4:18pm 16 23 mph 1011.8mb 33f
4:12pm 15 21 mph 1011.7mb 33f
4:06pm 14 20 mph 1011.6mb 33f
4:00pm 16 23 mph 1011.6mb 33f
3:54pm 17 25 mph 1011.6mb 33f
3:48pm 17 23 mph 1011.5mb 33f
3:42pm 16 26 mph 1011.4mb 33f
3:36pm 18 28 mph 1011.2mb 33f
3:30pm 17 24 mph 1011.1mb 33f
3:24pm 15 22 mph 1011mb 34f
3:18pm 22 26 mph 1010.8mb 34f
3:12pm 18 25 mph 1010.8mb 34f
3:06pm 16 25 mph 1010.7mb 34f
3:00pm 18 23 mph 1010.6mb 35f
2:54pm 17 24 mph 1010.5mb 35f
2:48pm 18 24 mph 1010.4mb 35f
2:42pm 16 23 mph 1010.3mb 35f
2:36pm 20 26 mph 1010.2mb 35f
2:30pm 17 24 mph 1010mb 35f
2:24pm 20 25 mph 1009.7mb 35f
2:18pm 21 26 mph 1009.7mb 35f
2:12pm 17 23 mph 1009.7mb 35f
2:06pm 17 25 mph 1009.7mb 35f
2:00pm 20 25 mph 1009.6mb 35f
1:54pm 21 29 mph 1009.5mb 35f
1:48pm 20 26 mph 1009.4mb 35f
1:42pm 18
mph
1009.2mb 36f
1:36pm 20 24 mph 1009.1mb 36f
1:30pm 18 22 mph 1009mb 36f
1:24pm 14 21 mph 1008.9mb 36f
1:18pm 13 23 mph 1008.8mb 36f
1:12pm 18 23 mph 1008.6mb 36f
1:06pm 16 22 mph 1008.6mb 36f
1:00pm 15 22 mph 1008.7mb 36f
12:54pm 16 23 mph 1008.6mb 36f
12:48pm 16 22 mph 1008.5mb 36f
12:42pm 20 24 mph 1008.3mb 36f
12:36pm 18 23 mph 1008.3mb 36f
12:30pm 17 26 mph 1008.3mb 36f
12:24pm 18 23 mph 1008.2mb 36f
12:18pm 21 26 mph 1008mb 36f
12:12pm 17 23 mph 1007.9mb 36f
12:06pm 15 24 mph 1008mb 36f
12:00pm 16 21 mph 1008.1mb 36f
11:54am 14 20 mph 1008.2mb 36f
11:48am 16 21 mph 1008.3mb 36f
11:42am 13 18 mph 1008.4mb 37f
11:36am 15 18 mph 1008.5mb 37f
11:30am 11 17 mph 1008.2mb 37f
11:24am 11 17 mph 1008.1mb 37f
11:18am 15 20 mph 1008mb 37f
11:12am 14 17 mph 1008mb 37f
11:06am 11 15 mph 1008.1mb 38f
11:00am 7 14 mph 1008mb 38f
10:54am 9 15 mph 1007.8mb 37f
10:48am 11 15 mph 1007.4mb 37f
10:42am 13 17 mph 1007.1mb 37f
10:36am 13 16 mph 1007mb 36f
10:30am 10 15 mph 1007mb 37f
10:24am 11 15 mph 1006.8mb 37f
10:18am 9 10 mph 1006.8mb 37f
10:12am 8 11 mph 1006.9mb 37f
10:06am 10 11 mph 1006.9mb 37f
10:00am 9 11 mph 1006.5mb 37f
9:54am 8 11 mph 1006.3mb 37f
9:48am 7 10 mph 1006.3mb 37f
9:42am 9 11 mph 1006.2mb 37f
9:36am 9 14 mph 1006mb 37f
9:30am 10 15 mph 1005.9mb 37f
9:24am 7 14 mph 1005.6mb 37f
9:18am 9 11 mph 1005.3mb 37f
9:12am 9 14 mph 1005.3mb 37f
9:06am 9 16 mph 1005.3mb 36f
9:00am 10 15 mph 1005.5mb 37f
8:54am 10 16 mph 1005.5mb 36f
8:48am 10 14 mph 1005.2mb 36f
8:42am 10 15 mph 1005.1mb 36f
8:36am 11 15 mph 1004.8mb 36f
8:30am 9 14 mph 1004.7mb 36f
8:24am 10 13 mph 1004.7mb 36f
8:18am 10 13 mph 1004.4mb 36f
8:12am 10 15 mph 1004.4mb 36f
8:06am 11 15 mph 1004.4mb 36f
8:00am 11 15 mph 1004.3mb 35f
7:54am 10 13 mph 1004.2mb 35f
7:48am 9 11 mph 1003.9mb 35f
7:42am 9 11 mph 1003.8mb 35f
7:36am 10 13 mph 1003.6mb 35f
7:30am 10 14 mph 1003.6mb 35f
7:24am 13 15 mph 1003.4mb 35f
7:18am 11 16 mph 1003.3mb 35f
7:12am 13 16 mph 1003.3mb 36f
7:06am 13 16 mph 1003.3mb 36f
7:00am 13 16 mph 1003.2mb 36f
6:54am 10 15 mph 1003.1mb 36f
6:48am 13 17 mph 1002.9mb 37f
6:42am 13 16 mph 1002.8mb 37f
6:36am 10 14 mph 1002.7mb 37f
6:30am 13 15 mph 1002.4mb 38f
6:24am 10 13 mph 1002.4mb 38f
6:18am 8 14 mph 1002.2mb 38f
6:12am 7 10 mph 1002mb 37f
6:06am 10 15 mph 1001.8mb 37f
6:00am 9 13 mph 1001.5mb 36f
5:54am 10 13 mph 1001.2mb 37f
5:48am 8 10 mph 1001mb 36f
5:42am 7 9 mph 1000.9mb 36f
5:36am 3 5 mph 1000.7mb 36f
5:30am 2 3 mph 1000.6mb 36f
5:24am 1 6 mph 1000.6mb 36f
5:18am 5 7 mph 1000.8mb 36f
5:12am 7 8 mph 1000.5mb 35f
5:06am 6 8 mph 1000.2mb 36f
5:00am 5 9 mph 1000.5mb 36f
4:54am 6 9 mph 1000.7mb 36f
4:48am 5 8 mph 1000.6mb 37f
4:42am 8 10 mph 1000.5mb 37f
4:36am 9 10 mph 1000.4mb 37f
4:30am 6 13 mph 1000.2mb 37f
4:24am 8 11 mph 1000.3mb 37f
4:18am 3 5 mph 999.8mb 37f
4:12am 5
mph
999.6mb 37f
4:06am 3 5 mph 999.6mb 37f
4:00am 3 7 mph 999.7mb 37f
3:54am 6 7 mph 999.9mb 37f
3:48am 1 2 mph 999.7mb 37f
2:54am 5 7 mph 1000.1mb 38f
2:48am 6 7 mph 999.9mb 38f
1:54am  -  2 mph 999.5mb 38f
1:48am  -  1 mph 999.3mb 37f
12:54am 2 3 mph 999.5mb 37f
12:48am 2 3 mph 999.4mb 37f
Wed 02/22 11:54pm 2 6 mph 1000.4mb 38f
11:48pm 3
mph
1000.4mb 37f
10:54pm 3
mph
1001.1mb 37f
10:48pm 2 5 mph 1001.1mb 36f
9:54pm  -  2 mph 1001.8mb 38f
9:48pm 1 2 mph 1001.9mb 38f
8:54pm 1 2 mph 1001.5mb 37f
8:48pm  -  3 mph 1001.6mb 36f
7:54pm 5 6 mph 1001.9mb 38f
7:48pm 5
mph
1002.1mb 38f
6:54pm 5
mph
1002.4mb 38f
6:48pm 2 3 mph 1002.4mb 38f
5:54pm 3
mph
1002.5mb 38f
4:54pm 5 6 mph 1002.1mb 39f
4:48pm 6
mph
1002.5mb 39f
3:54pm  -  3 mph 1002.5mb 40f
3:48pm 2
mph
1002.4mb 40f
2:54pm 5 7 mph 1002.9mb 42f
2:48pm 6 8 mph 1002.9mb 42f
1:54pm 8 10 mph 1002mb 44f
1:48pm 9 10 mph 1002.2mb 44f
12:54pm 8 9 mph 1003.3mb 44f
11:54am 3 5 mph 1004.4mb 43f
11:48am 3 7 mph 1004.5mb 42f
10:54am 3 5 mph 1004.8mb 40f
10:48am 3 5 mph 1004.9mb 40f
9:54am 9 10 mph 1004.9mb 38f
9:48am 7 9 mph 1005.1mb 38f